| time (UTC) | temp C | wind direction | speed KPH | gust KPH | rain 1hr cm | rain 24hr cm | rain mn cm | humidity % | barometer mb |
| 20260504214558 | 23 | 122 | 4.8 | 0.0 | 0.00 | 0.00 | 0.00 | 39 | 1008.9 |
| 20260504213054 | 24 | 167 | 6.4 | 0.0 | 0.00 | 0.00 | 0.00 | 37 | 1008.9 |
| 20260504211552 | 24 | 92 | 6.4 | 0.0 | 0.00 | 0.00 | 0.00 | 38 | 1008.9 |
| 20260504204548 | 23 | 194 | 8.0 | 0.0 | 0.00 | 0.00 | 0.00 | 39 | 1009.0 |
| 20260504203043 | 23 | 133 | 9.7 | 0.0 | 0.00 | 0.00 | 0.00 | 39 | 1009.1 |
| 20260504201532 | 23 | 241 | 8.0 | 0.0 | 0.00 | 0.00 | 0.00 | 38 | 1009.3 |
| 20260504200028 | 23 | 148 | 6.4 | 0.0 | 0.00 | 0.00 | 0.00 | 38 | 1009.6 |
| 20260504194536 | 23 | 224 | 6.4 | 0.0 | 0.00 | 0.00 | 0.00 | 40 | 1009.7 |
| 20260504193020 | 23 | 206 | 4.8 | 0.0 | 0.00 | 0.00 | 0.00 | 39 | 1010.0 |
| 20260504191514 | 23 | 110 | 3.2 | 0.0 | 0.00 | 0.00 | 0.00 | 41 | 1010.2 |
| 20260504190010 | 23 | 180 | 8.0 | 0.0 | 0.00 | 0.00 | 0.00 | 40 | 1010.5 |
| 20260504184510 | 22 | 198 | 6.4 | 0.0 | 0.00 | 0.00 | 0.00 | 41 | 1010.9 |
| 20260504183002 | 22 | 167 | 8.0 | 0.0 | 0.00 | 0.00 | 0.00 | 40 | 1011.0 |
| 20260504181603 | 22 | 92 | 8.0 | 0.0 | 0.00 | 0.00 | 0.00 | 41 | 1011.1 |
| 20260504180143 | 22 | 132 | 4.8 | 0.0 | 0.00 | 0.00 | 0.00 | 40 | 1011.3 |
| 20260504174550 | 22 | 169 | 6.4 | 0.0 | 0.00 | 0.00 | 0.00 | 40 | 1011.7 |
| 20260504173056 | 21 | 213 | 6.4 | 0.0 | 0.00 | 0.00 | 0.00 | 41 | 1011.7 |
| 20260504171540 | 21 | 244 | 6.4 | 0.0 | 0.00 | 0.00 | 0.00 | 39 | 1012.0 |
| 20260504081501 | 8 | 225 | 0.0 | 0.0 | 0.00 | 0.00 | 0.00 | 17 | 1014.9 |
| 20260504050005 | 6 | 226 | 1.6 | 0.0 | 0.00 | 0.00 | 0.00 | 100 | 1015.2 |
| 20260504044501 | 6 | 225 | 0.0 | 0.0 | 0.00 | 0.00 | 0.00 | 100 | 1015.1 |
| 20260504043101 | 6 | 225 | 3.2 | 0.0 | 0.00 | 0.00 | 0.00 | 100 | 1015.2 |
| 20260504041552 | 6 | 232 | 1.6 | 0.0 | 0.00 | 0.00 | 0.00 | 100 | 1015.0 |
| 20260504040048 | 6 | 248 | 0.0 | 0.0 | 0.00 | 0.00 | 0.00 | 100 | 1015.1 |
| 20260504034549 | 6 | 248 | 0.0 | 0.0 | 0.00 | 0.00 | 0.00 | 1 | 1015.1 |
| 20260504033043 | 6 | 248 | 0.0 | 0.0 | 0.00 | 0.00 | 0.00 | 10 | 1014.8 |
| 20260504031542 | 6 | 248 | 0.0 | 0.0 | 0.00 | 0.00 | 0.00 | 19 | 1014.8 |
| 20260504030039 | 7 | 248 | 0.0 | 0.0 | 0.00 | 0.00 | 0.00 | 37 | 1014.6 |
| 20260504024529 | 7 | 248 | 0.0 | 0.0 | 0.00 | 0.00 | 0.00 | 45 | 1014.5 |
| 20260504023028 | 7 | 248 | 0.0 | 0.0 | 0.00 | 0.00 | 0.00 | 52 | 1014.6 |
| 20260504021528 | 7 | 248 | 0.0 | 0.0 | 0.00 | 0.00 | 0.00 | 59 | 1014.5 |
| 20260504020030 | 8 | 248 | 0.0 | 0.0 | 0.00 | 0.00 | 0.00 | 62 | 1014.5 |
| 20260504014527 | 8 | 248 | 0.0 | 0.0 | 0.00 | 0.00 | 0.00 | 63 | 1014.3 |
| 20260504013027 | 8 | 248 | 0.0 | 0.0 | 0.00 | 0.00 | 0.00 | 64 | 1014.2 |
| 20260504011527 | 9 | 248 | 0.0 | 0.0 | 0.00 | 0.00 | 0.00 | 63 | 1014.0 |
| 20260504010026 | 9 | 248 | 0.0 | 0.0 | 0.00 | 0.00 | 0.00 | 62 | 1014.1 |
| 20260504004528 | 10 | 248 | 0.0 | 0.0 | 0.00 | 0.00 | 0.00 | 59 | 1013.8 |
| 20260504003024 | 11 | 248 | 0.0 | 0.0 | 0.00 | 0.00 | 0.00 | 57 | 1013.9 |
| 20260504001525 | 11 | 248 | 0.0 | 0.0 | 0.00 | 0.00 | 0.00 | 54 | 1013.6 |
| 20260504000024 | 13 | 248 | 0.0 | 0.0 | 0.00 | 0.00 | 0.00 | 49 | 1013.5 |
| 20260503234526 | 14 | 248 | 1.6 | 0.0 | 0.00 | 0.00 | 0.00 | 45 | 1013.4 |
| 20260503233024 | 15 | 246 | 0.0 | 0.0 | 0.00 | 0.00 | 0.00 | 41 | 1013.3 |
| 20260503231526 | 15 | 236 | 1.6 | 0.0 | 0.00 | 0.00 | 0.00 | 38 | 1013.1 |
| 20260503230023 | 15 | 239 | 1.6 | 0.0 | 0.00 | 0.00 | 0.00 | 37 | 1013.1 |
| 20260503224521 | 16 | 250 | 6.4 | 0.0 | 0.00 | 0.00 | 0.00 | 35 | 1013.2 |
| 20260503223024 | 16 | 250 | 4.8 | 0.0 | 0.00 | 0.00 | 0.00 | 37 | 1013.2 |
| 20260503221521 | 16 | 306 | 6.4 | 0.0 | 0.00 | 0.00 | 0.00 | 35 | 1013.1 |
| 20260503220027 | 17 | 212 | 8.0 | 0.0 | 0.00 | 0.00 | 0.00 | 36 | 1013.2 |